Weather in Bogot

Uzbekistan     41°21′12″N   60°48′43″E
temp.,
°C
wind,
m/s
gust,
m/s
humid.,
%
clouds,
%
prec.,
mm/h
press.,
hPa
HPBL,
m
15 april, thu
thu1523:00+20n23250 0.0 101520
02:00+18nnw33290 0.0 101523
05:00+16n34330 0.0 101534
08:00+17nnw34310 0.0 1016151
11:00+22nw45195 0.0 10161082
14:00+25nw67133 0.0 10152218
17:00+26nw77120 0.0 10142391
20:00+23n47110 0.0 1014142
16 april, fri
fri1623:00+20nne33155 0.0 101538
02:00+17nnw22194 0.0 101411
05:00+16nw22245 0.0 101512
08:00+18nw23275 0.0 1016118
11:00+23nw351769 0.0 1017946
14:00+26nw461478 0.0 10162140
17:00+27nw6613100 0.0 10152671
20:00+24wnw342193 0.0 1016137
17 april, sat
sat1723:00+22nne2221100 0.0 101617
02:00+21ne332087 0.0 101616
05:00+20nne222299 0.0 101714
08:00+21ssw112388 0.0 101889
11:00+25s001872 0.0 1019894
14:00+27w13144 0.0 10183597
17:00+28w441214 0.0 10173986
20:00+26nw461468 0.0 1018149
18 april, sun
sun1823:00+23ne46182 0.0 1019106
02:00+21e46200 0.0 101875
05:00+19ese44225 0.0 101950
08:00+21se462138 0.0 1020181
11:00+26sse3314100 0.0 1019763
14:00+28sw3413100 0.0 10173384
17:00+28sw2314100 0.0 10162752
20:00+26e3315100 0.0 101542
19 april, mon
mon1923:00+24se5817100 0.0 1015138
02:00+22s332076 0.0 101429
05:00+20s222199 0.0 101311
08:00+22ssw2718100 0.0 1014232
11:00+27sw661486 0.0 10131209
14:00+28sw4518100 0.0 10123513
17:00+29se2615100 0.0 10103760
20:00+25w8724100 0.0 10121812